Time,TemperatureF,DewpointF,PressureIn,WindDirection,WindDirectionDegrees,WindSpeedMPH,WindSpeedGustMPH,Humidity,HourlyPrecipIn,Conditions,Clouds,dailyrainin,SoftwareType,DateUTC
2013-02-01 00:00:00,37.1,37.1,30.35,SE,124,0.0,0.0,100,0.00,,,0.00,Wunderground v.1.15,2013-02-01 08:00:00,
2013-02-01 00:05:00,37.0,37.0,30.35,SE,124,0.0,0.0,100,0.00,,,0.00,Wunderground v.1.15,2013-02-01 08:05:00,
2013-02-01 00:10:00,36.9,36.9,30.35,SE,124,0.0,0.0,100,0.00,,,0.00,Wunderground v.1.15,2013-02-01 08:10:00,
2013-02-01 00:15:00,36.9,36.9,30.35,SE,124,0.0,0.0,100,0.00,,,0.00,Wunderground v.1.15,2013-02-01 08:15:00,
2013-02-01 00:20:00,36.8,36.8,30.35,SE,124,0.0,0.0,100,0.00,,,0.00,Wunderground v.1.15,2013-02-01 08:20:00,
2013-02-01 00:30:00,36.7,36.7,30.34,SE,124,0.0,0.0,100,0.00,,,0.00,Wunderground v.1.15,2013-02-01 08:30:00,
2013-02-01 00:35:00,36.6,36.6,30.34,SE,124,0.0,0.0,100,0.00,,,0.00,Wunderground v.1.15,2013-02-01 08:35:00,
2013-02-01 00:40:00,36.5,36.5,30.34,SE,124,0.0,1.0,100,0.00,,,0.00,Wunderground v.1.15,2013-02-01 08:40:00,
2013-02-01 00:45:00,36.5,36.5,30.34,SE,124,0.0,1.0,100,0.00,,,0.00,Wunderground v.1.15,2013-02-01 08:45:00,
2013-02-01 00:50:00,36.4,36.4,30.35,SE,124,0.0,0.0,100,0.00,,,0.00,Wunderground v.1.15,2013-02-01 08:50:00,
2013-02-01 01:00:00,36.2,36.2,30.34,SE,124,0.0,0.0,100,0.00,,,0.00,Wunderground v.1.15,2013-02-01 09:00:00,
2013-02-01 01:05:00,36.1,36.1,30.34,SE,124,0.0,0.0,100,0.00,,,0.00,Wunderground v.1.15,2013-02-01 09:05:00,
2013-02-01 01:10:00,36.1,36.1,30.34,SE,124,0.0,0.0,100,0.00,,,0.00,Wunderground v.1.15,2013-02-01 09:10:00,
2013-02-01 01:15:00,36.0,36.0,30.34,SE,124,0.0,0.0,100,0.00,,,0.00,Wunderground v.1.15,2013-02-01 09:15:00,
2013-02-01 01:20:00,36.0,36.0,30.34,SE,124,0.0,0.0,100,0.00,,,0.00,Wunderground v.1.15,2013-02-01 09:20:00,
2013-02-01 01:25:00,35.9,35.9,30.34,SE,124,0.0,0.0,100,0.00,,,0.00,Wunderground v.1.15,2013-02-01 09:25:00,
2013-02-01 01:35:00,35.7,35.7,30.34,SE,124,0.0,0.0,100,0.00,,,0.00,Wunderground v.1.15,2013-02-01 09:35:00,
2013-02-01 01:40:00,35.6,35.6,30.34,SE,124,0.0,1.0,100,0.00,,,0.00,Wunderground v.1.15,2013-02-01 09:40:00,
2013-02-01 01:45:00,35.6,35.6,30.34,SE,124,0.0,1.0,100,0.00,,,0.00,Wunderground v.1.15,2013-02-01 09:45:00,
2013-02-01 01:50:00,35.6,35.6,30.34,SE,124,0.0,0.0,100,0.00,,,0.00,Wunderground v.1.15,2013-02-01 09:50:00,
2013-02-01 01:55:00,35.6,35.6,30.33,SE,124,0.0,0.0,100,0.00,,,0.00,Wunderground v.1.15,2013-02-01 09:55:00,
2013-02-01 02:05:00,35.5,35.5,30.33,SE,124,0.0,0.0,100,0.00,,,0.00,Wunderground v.1.15,2013-02-01 10:05:00,
2013-02-01 02:10:00,35.5,35.5,30.33,SE,124,0.0,0.0,100,0.00,,,0.00,Wunderground v.1.15,2013-02-01 10:10:00,
2013-02-01 02:15:00,35.5,35.5,30.33,SE,124,0.0,0.0,100,0.00,,,0.00,Wunderground v.1.15,2013-02-01 10:15:00,
2013-02-01 02:20:00,35.5,35.5,30.33,SE,124,0.0,0.0,100,0.00,,,0.00,Wunderground v.1.15,2013-02-01 10:20:00,
2013-02-01 02:30:00,35.2,35.2,30.33,SE,124,0.0,0.0,100,0.00,,,0.00,Wunderground v.1.15,2013-02-01 10:30:00,
2013-02-01 02:40:00,35.0,35.0,30.33,SE,124,0.0,0.0,100,0.00,,,0.00,Wunderground v.1.15,2013-02-01 10:40:00,
2013-02-01 02:45:00,35.0,35.0,30.32,SE,124,0.0,0.0,100,0.00,,,0.00,Wunderground v.1.15,2013-02-01 10:45:00,
2013-02-01 02:50:00,35.0,35.0,30.32,SE,124,0.0,0.0,100,0.00,,,0.00,Wunderground v.1.15,2013-02-01 10:50:00,
2013-02-01 02:55:00,35.0,35.0,30.32,SE,124,0.0,0.0,100,0.00,,,0.00,Wunderground v.1.15,2013-02-01 10:55:00,
2013-02-01 03:05:00,34.9,34.9,30.31,ESE,123,0.0,1.0,100,0.00,,,0.00,Wunderground v.1.15,2013-02-01 11:05:00,
2013-02-01 03:10:00,34.9,34.9,30.31,SE,124,0.0,0.0,100,0.00,,,0.00,Wunderground v.1.15,2013-02-01 11:10:00,
2013-02-01 03:15:00,34.9,34.9,30.31,East,86,0.0,1.0,100,0.00,,,0.00,Wunderground v.1.15,2013-02-01 11:15:00,
2013-02-01 03:20:00,34.8,34.8,30.31,ENE,70,0.0,1.0,100,0.00,,,0.00,Wunderground v.1.15,2013-02-01 11:20:00,
2013-02-01 03:25:00,34.7,34.7,30.31,ENE,70,0.0,1.0,100,0.00,,,0.00,Wunderground v.1.15,2013-02-01 11:25:00,
2013-02-01 03:35:00,34.7,34.7,30.31,ENE,70,0.0,1.0,100,0.00,,,0.00,Wunderground v.1.15,2013-02-01 11:35:00,
2013-02-01 03:40:00,34.7,34.7,30.30,ENE,70,0.0,0.0,100,0.00,,,0.00,Wunderground v.1.15,2013-02-01 11:40:00,
2013-02-01 03:45:00,34.7,34.7,30.30,ENE,70,0.0,0.0,100,0.00,,,0.00,Wunderground v.1.15,2013-02-01 11:45:00,
2013-02-01 03:50:00,34.8,34.8,30.30,ENE,70,0.0,0.0,100,0.00,,,0.00,Wunderground v.1.15,2013-02-01 11:50:00,
2013-02-01 03:55:00,34.8,34.8,30.30,ENE,70,0.0,0.0,100,0.00,,,0.00,Wunderground v.1.15,2013-02-01 11:55:00,
2013-02-01 04:00:00,34.7,34.7,30.30,ENE,70,0.0,0.0,100,0.00,,,0.00,Wunderground v.1.15,2013-02-01 12:00:00,
2013-02-01 04:10:00,34.8,34.8,30.30,ENE,78,0.0,0.0,100,0.00,,,0.00,Wunderground v.1.15,2013-02-01 12:10:00,
2013-02-01 04:15:00,34.7,34.7,30.30,ENE,78,0.0,0.0,100,0.00,,,0.00,Wunderground v.1.15,2013-02-01 12:15:00,
2013-02-01 04:20:00,34.5,34.5,30.30,ENE,78,0.0,0.0,100,0.00,,,0.00,Wunderground v.1.15,2013-02-01 12:20:00,
2013-02-01 04:25:00,34.5,34.5,30.30,ENE,78,0.0,0.0,100,0.00,,,0.00,Wunderground v.1.15,2013-02-01 12:25:00,
2013-02-01 04:30:00,34.5,34.5,30.30,ENE,77,0.0,0.0,100,0.00,,,0.00,Wunderground v.1.15,2013-02-01 12:30:00,
2013-02-01 04:35:00,34.4,34.4,30.30,ENE,77,0.0,0.0,100,0.00,,,0.00,Wunderground v.1.15,2013-02-01 12:35:00,
2013-02-01 04:45:00,34.2,34.2,30.30,ENE,76,0.0,0.0,100,0.00,,,0.00,Wunderground v.1.15,2013-02-01 12:45:00,
2013-02-01 04:50:00,34.1,34.1,30.30,ENE,76,0.0,0.0,100,0.00,,,0.00,Wunderground v.1.15,2013-02-01 12:50:00,
2013-02-01 04:55:00,34.2,34.2,30.30,ENE,76,0.0,0.0,100,0.00,,,0.00,Wunderground v.1.15,2013-02-01 12:55:00,
2013-02-01 05:00:00,34.2,34.2,30.30,ENE,76,0.0,0.0,100,0.00,,,0.00,Wunderground v.1.15,2013-02-01 13:00:00,
2013-02-01 05:05:00,34.1,34.1,30.30,ENE,76,0.0,0.0,100,0.00,,,0.00,Wunderground v.1.15,2013-02-01 13:05:00,
2013-02-01 05:15:00,34.0,34.0,30.29,ENE,77,0.0,0.0,100,0.00,,,0.00,Wunderground v.1.15,2013-02-01 13:15:00,
2013-02-01 05:20:00,34.0,34.0,30.29,ENE,77,0.0,0.0,100,0.00,,,0.00,Wunderground v.1.15,2013-02-01 13:20:00,
2013-02-01 05:25:00,33.9,33.9,30.29,ENE,77,0.0,0.0,100,0.00,,,0.00,Wunderground v.1.15,2013-02-01 13:25:00,
2013-02-01 05:30:00,33.8,33.8,30.29,ENE,77,0.0,0.0,100,0.00,,,0.00,Wunderground v.1.15,2013-02-01 13:30:00,
2013-02-01 05:35:00,33.8,33.8,30.29,ENE,77,0.0,0.0,100,0.00,,,0.00,Wunderground v.1.15,2013-02-01 13:35:00,
2013-02-01 05:40:00,33.7,33.7,30.29,ENE,77,0.0,0.0,100,0.00,,,0.00,Wunderground v.1.15,2013-02-01 13:40:00,
2013-02-01 05:50:00,33.7,33.7,30.29,ENE,77,0.0,0.0,100,0.00,,,0.00,Wunderground v.1.15,2013-02-01 13:50:00,
2013-02-01 05:55:00,33.7,33.7,30.29,ENE,77,0.0,0.0,100,0.00,,,0.00,Wunderground v.1.15,2013-02-01 13:55:00,
2013-02-01 06:05:00,33.7,33.7,30.29,ENE,77,0.0,0.0,100,0.00,,,0.00,Wunderground v.1.15,2013-02-01 14:05:00,
2013-02-01 06:15:00,33.5,33.5,30.29,East,81,0.0,0.0,100,0.00,,,0.00,Wunderground v.1.15,2013-02-01 14:15:00,
2013-02-01 06:20:00,33.5,33.5,30.29,East,81,0.0,0.0,100,0.00,,,0.00,Wunderground v.1.15,2013-02-01 14:20:00,
2013-02-01 06:25:00,33.4,33.4,30.29,East,81,0.0,0.0,100,0.00,,,0.00,Wunderground v.1.15,2013-02-01 14:25:00,
2013-02-01 06:30:00,33.4,33.4,30.29,East,81,0.0,0.0,100,0.00,,,0.00,Wunderground v.1.15,2013-02-01 14:30:00,
2013-02-01 06:35:00,33.3,33.3,30.29,East,81,0.0,0.0,100,0.00,,,0.00,Wunderground v.1.15,2013-02-01 14:35:00,
2013-02-01 06:40:00,33.3,33.3,30.29,East,81,0.0,0.0,100,0.00,,,0.00,Wunderground v.1.15,2013-02-01 14:40:00,
2013-02-01 06:50:00,33.2,33.2,30.29,East,81,0.0,0.0,100,0.00,,,0.00,Wunderground v.1.15,2013-02-01 14:50:00,
2013-02-01 06:55:00,33.2,33.2,30.28,East,81,0.0,0.0,100,0.00,,,0.00,Wunderground v.1.15,2013-02-01 14:55:00,
2013-02-01 07:00:00,33.0,33.0,30.28,East,81,0.0,0.0,100,0.00,,,0.00,Wunderground v.1.15,2013-02-01 15:00:00,
2013-02-01 07:05:00,33.0,33.0,30.28,East,81,0.0,0.0,100,0.00,,,0.00,Wunderground v.1.15,2013-02-01 15:05:00,
2013-02-01 07:10:00,32.9,32.9,30.28,East,81,0.0,0.0,100,0.00,,,0.00,Wunderground v.1.15,2013-02-01 15:10:00,
2013-02-01 07:20:00,33.0,33.0,30.27,East,81,0.0,0.0,100,0.00,,,0.00,Wunderground v.1.15,2013-02-01 15:20:00,
2013-02-01 07:25:00,32.9,32.9,30.27,East,81,0.0,0.0,100,0.00,,,0.00,Wunderground v.1.15,2013-02-01 15:25:00,
2013-02-01 07:30:00,32.8,32.8,30.27,East,81,0.0,0.0,100,0.00,,,0.00,Wunderground v.1.15,2013-02-01 15:30:00,
2013-02-01 07:35:00,32.8,32.8,30.28,East,81,0.0,0.0,100,0.00,,,0.00,Wunderground v.1.15,2013-02-01 15:35:00,
2013-02-01 07:45:00,32.8,32.8,30.28,ENE,67,0.0,1.0,100,0.00,,,0.00,Wunderground v.1.15,2013-02-01 15:45:00,
2013-02-01 07:55:00,33.1,33.1,30.28,ENE,67,0.0,0.0,100,0.00,,,0.00,Wunderground v.1.15,2013-02-01 15:55:00,
2013-02-01 08:00:00,33.3,33.3,30.28,SE,129,0.0,0.0,100,0.00,,,0.00,Wunderground v.1.15,2013-02-01 16:00:00,
2013-02-01 08:05:00,33.2,33.2,30.28,ENE,70,0.0,0.0,100,0.00,,,0.00,Wunderground v.1.15,2013-02-01 16:05:00,
2013-02-01 08:10:00,33.3,33.3,30.28,ENE,75,0.0,0.0,100,0.00,,,0.00,Wunderground v.1.15,2013-02-01 16:10:00,
2013-02-01 08:20:00,33.5,33.5,30.27,ESE,108,0.0,1.0,100,0.00,,,0.00,Wunderground v.1.15,2013-02-01 16:20:00,
2013-02-01 08:30:00,33.5,33.5,30.27,East,94,0.0,0.0,100,0.00,,,0.00,Wunderground v.1.15,2013-02-01 16:30:00,
2013-02-01 08:35:00,33.6,33.6,30.27,East,87,0.0,1.0,100,0.00,,,0.00,Wunderground v.1.15,2013-02-01 16:35:00,
2013-02-01 08:40:00,33.6,33.6,30.27,East,86,0.0,0.0,100,0.00,,,0.00,Wunderground v.1.15,2013-02-01 16:40:00,
2013-02-01 08:45:00,33.7,33.7,30.27,East,85,0.0,0.0,100,0.00,,,0.00,Wunderground v.1.15,2013-02-01 16:45:00,
2013-02-01 08:50:00,33.9,33.9,30.27,East,86,0.0,0.0,100,0.00,,,0.00,Wunderground v.1.15,2013-02-01 16:50:00,
2013-02-01 08:55:00,34.1,34.1,30.28,East,86,0.0,0.0,100,0.00,,,0.00,Wunderground v.1.15,2013-02-01 16:55:00,
2013-02-01 09:05:00,34.4,34.4,30.27,East,86,0.0,0.0,100,0.00,,,0.00,Wunderground v.1.15,2013-02-01 17:05:00,
2013-02-01 09:10:00,34.7,34.7,30.27,East,86,0.0,1.0,100,0.00,,,0.00,Wunderground v.1.15,2013-02-01 17:10:00,
2013-02-01 09:15:00,35.0,35.0,30.27,East,86,0.0,1.0,100,0.00,,,0.00,Wunderground v.1.15,2013-02-01 17:15:00,
2013-02-01 09:20:00,35.4,35.4,30.27,East,86,0.0,0.0,100,0.00,,,0.00,Wunderground v.1.15,2013-02-01 17:20:00,
2013-02-01 09:25:00,35.7,35.7,30.27,East,86,0.0,0.0,100,0.00,,,0.00,Wunderground v.1.15,2013-02-01 17:25:00,
2013-02-01 09:30:00,36.0,36.0,30.27,East,86,0.0,0.0,100,0.00,,,0.00,Wunderground v.1.15,2013-02-01 17:30:00,
2013-02-01 09:40:00,36.9,36.9,30.27,East,86,0.0,0.0,100,0.00,,,0.00,Wunderground v.1.15,2013-02-01 17:40:00,
2013-02-01 09:45:00,37.4,37.4,30.27,East,86,0.0,0.0,100,0.00,,,0.00,Wunderground v.1.15,2013-02-01 17:45:00,
2013-02-01 09:50:00,38.5,38.5,30.27,East,86,0.0,0.0,100,0.00,,,0.00,Wunderground v.1.15,2013-02-01 17:50:00,
2013-02-01 09:55:00,39.6,39.6,30.27,East,86,0.0,0.0,100,0.00,,,0.00,Wunderground v.1.15,2013-02-01 17:55:00,
2013-02-01 10:00:00,40.5,40.5,30.26,East,86,0.0,0.0,100,0.00,,,0.00,Wunderground v.1.15,2013-02-01 18:00:00,
2013-02-01 10:05:00,41.2,41.2,30.26,East,86,0.0,0.0,100,0.00,,,0.00,Wunderground v.1.15,2013-02-01 18:05:00,
2013-02-01 10:15:00,42.7,42.7,30.26,East,86,0.0,0.0,100,0.00,,,0.00,Wunderground v.1.15,2013-02-01 18:15:00,
2013-02-01 10:20:00,42.7,42.7,30.26,East,91,0.0,0.0,100,0.00,,,0.00,Wunderground v.1.15,2013-02-01 18:20:00,
2013-02-01 10:25:00,43.1,43.1,30.26,East,94,0.0,1.0,100,0.00,,,0.00,Wunderground v.1.15,2013-02-01 18:25:00,
2013-02-01 10:30:00,43.7,43.7,30.26,SE,129,0.0,0.0,100,0.00,,,0.00,Wunderground v.1.15,2013-02-01 18:30:00,
2013-02-01 10:35:00,44.7,44.7,30.26,SE,141,0.0,0.0,100,0.00,,,0.00,Wunderground v.1.15,2013-02-01 18:35:00,
2013-02-01 10:40:00,44.9,44.9,30.26,SSE,165,0.0,0.0,100,0.00,,,0.00,Wunderground v.1.15,2013-02-01 18:40:00,
2013-02-01 10:45:00,45.6,45.6,30.26,SE,133,0.0,0.0,100,0.00,,,0.00,Wunderground v.1.15,2013-02-01 18:45:00,
2013-02-01 10:55:00,46.9,46.6,30.26,SSE,167,0.0,0.0,99,0.00,,,0.00,Wunderground v.1.15,2013-02-01 18:55:00,
2013-02-01 11:00:00,47.7,47.2,30.26,WSW,240,0.0,0.0,98,0.00,,,0.00,Wunderground v.1.15,2013-02-01 19:00:00,
2013-02-01 11:05:00,48.2,47.4,30.26,WSW,239,0.0,0.0,97,0.00,,,0.00,Wunderground v.1.15,2013-02-01 19:05:00,
2013-02-01 11:10:00,48.6,47.8,30.26,WSW,240,0.0,0.0,97,0.00,,,0.00,Wunderground v.1.15,2013-02-01 19:10:00,
2013-02-01 11:15:00,49.3,47.9,30.26,WSW,246,0.0,0.0,95,0.00,,,0.00,Wunderground v.1.15,2013-02-01 19:15:00,
2013-02-01 11:20:00,49.7,47.2,30.27,WSW,255,1.0,1.0,91,0.00,,,0.00,Wunderground v.1.15,2013-02-01 19:20:00,
2013-02-01 11:30:00,49.7,47.5,30.26,WSW,258,1.0,1.0,92,0.00,,,0.00,Wunderground v.1.15,2013-02-01 19:30:00,
2013-02-01 11:35:00,49.8,47.6,30.26,SSE,152,1.0,1.0,92,0.00,,,0.00,Wunderground v.1.15,2013-02-01 19:35:00,
2013-02-01 11:40:00,49.9,47.7,30.26,West,274,0.0,2.0,92,0.00,,,0.00,Wunderground v.1.15,2013-02-01 19:40:00,
2013-02-01 11:45:00,49.9,47.4,30.26,WNW,283,0.0,2.0,91,0.00,,,0.00,Wunderground v.1.15,2013-02-01 19:45:00,
2013-02-01 11:50:00,50.2,47.1,30.26,SSW,204,1.0,1.0,89,0.00,,,0.00,Wunderground v.1.15,2013-02-01 19:50:00,
2013-02-01 11:55:00,50.2,47.4,30.26,West,279,1.0,4.0,90,0.00,,,0.00,Wunderground v.1.15,2013-02-01 19:55:00,
2013-02-01 12:00:00,50.3,47.5,30.25,SW,233,1.0,1.0,90,0.00,,,0.00,Wunderground v.1.15,2013-02-01 20:00:00,
2013-02-01 12:10:00,50.3,48.1,30.25,SSE,147,1.0,1.0,92,0.00,,,0.00,Wunderground v.1.15,2013-02-01 20:10:00,
2013-02-01 12:15:00,50.2,48.0,30.24,SSE,153,1.0,3.0,92,0.00,,,0.00,Wunderground v.1.15,2013-02-01 20:15:00,
2013-02-01 12:20:00,50.1,47.9,30.25,SE,129,1.0,1.0,92,0.00,,,0.00,Wunderground v.1.15,2013-02-01 20:20:00,
2013-02-01 12:25:00,50.1,47.9,30.24,SSE,148,1.0,2.0,92,0.00,,,0.00,Wunderground v.1.15,2013-02-01 20:25:00,
2013-02-01 12:30:00,50.4,47.9,30.24,SSE,157,1.0,2.0,91,0.00,,,0.00,Wunderground v.1.15,2013-02-01 20:30:00,
2013-02-01 12:35:00,50.4,47.9,30.24,SSE,152,1.0,2.0,91,0.00,,,0.00,Wunderground v.1.15,2013-02-01 20:35:00,
2013-02-01 12:45:00,50.6,48.1,30.23,ESE,118,1.0,2.0,91,0.00,,,0.00,Wunderground v.1.15,2013-02-01 20:45:00,
2013-02-01 12:50:00,50.9,48.4,30.23,SSE,151,1.0,1.0,91,0.00,,,0.00,Wunderground v.1.15,2013-02-01 20:50:00,
2013-02-01 12:55:00,51.2,48.4,30.23,SSE,150,1.0,2.0,90,0.00,,,0.00,Wunderground v.1.15,2013-02-01 20:55:00,
2013-02-01 13:00:00,51.3,48.5,30.23,SSE,158,1.0,2.0,90,0.00,,,0.00,Wunderground v.1.15,2013-02-01 21:00:00,
2013-02-01 13:05:00,51.4,48.3,30.22,SW,214,1.0,2.0,89,0.00,,,0.00,Wunderground v.1.15,2013-02-01 21:05:00,
2013-02-01 13:10:00,51.2,48.4,30.22,SSE,166,1.0,2.0,90,0.00,,,0.00,Wunderground v.1.15,2013-02-01 21:10:00,
2013-02-01 13:20:00,51.7,48.9,30.22,WSW,252,1.0,2.0,90,0.00,,,0.00,Wunderground v.1.15,2013-02-01 21:20:00,
2013-02-01 13:25:00,52.0,48.9,30.22,West,270,1.0,2.0,89,0.00,,,0.00,Wunderground v.1.15,2013-02-01 21:25:00,
2013-02-01 13:30:00,52.1,49.3,30.22,West,264,2.0,2.0,90,0.00,,,0.00,Wunderground v.1.15,2013-02-01 21:30:00,
2013-02-01 13:35:00,52.4,49.3,30.22,WSW,241,1.0,2.0,89,0.00,,,0.00,Wunderground v.1.15,2013-02-01 21:35:00,
2013-02-01 13:40:00,52.5,49.4,30.22,SW,226,1.0,1.0,89,0.00,,,0.00,Wunderground v.1.15,2013-02-01 21:40:00,
2013-02-01 13:50:00,53.0,49.5,30.21,West,270,1.0,2.0,88,0.00,,,0.00,Wunderground v.1.15,2013-02-01 21:50:00,